INTELSAT 33E DEB, 64398

Orbit data source: Space-Track

INTELSAT 33E DEB, 64398 is space debris in GEO originally from a launch on Wed, 24 Aug 2016 UTC launched from the French Guiana (FRGUI). Debris objects in space refer to the collection of defunct objects orbiting the Earth. Examples of debris include non-operational satellites, rocket bodies, and fragments generated from explosions, collisions, or faulty payload assembly.

Not visible in the next 10 days
Identifier
64398, 2016-053AC
Orbit
GEO
Last TLE update
2 days ago
Origin
Flag of UnknownINTELU (Unknown / ITSO)
Manufacturer
Boeing/ES
Mission
Spacecraft
Bus & Motor
Unknown
Mass
Unknown
Launch date (UTC)
2016-08-24 (9 years ago)
Launch vehicle
Unknown
Launch site
French Guiana (FRGUI)
Object type
Payload
Rocket body
Debris
Shape & HBR
Unknown
Radar Cross Section
RCS unknown

Expand to show TLE details & history

TLE from 2 days ago
0 INTELSAT 33E DEB
1 64398U 16053AC  25180.29902220 -.00000176  00000-0  00000-0 0  9992
2 64398   0.7829  23.2278 0112077   1.9400 335.3581  1.00954573  2457
Epoch: 2025-06-29T07:10Z
TLE epoch observation values (Epoch: 2025-06-29T07:10:35.518Z)
Latitude
-0.31694°
Longitude
-25.27105°
Altitude
35,171.182 km
Speed
3.113 km/s
True Right ascension
00h 00m 00s
True Declination
0° 18' 60"
Sunlit
Object was in daylight at epoch
Visualization orbit readout
Latitude
0.50609°
Longitude
36.85119°
Altitude
35,218.572 km
Speed
3.11 km/s
Apparent Right ascension
04h 35m 30s
Apparent Declination
-5° 05' 26"
Sunlit
Object is in daylight
Visualization observer readout
Local Sidereal Time
22:22:48
Azimuth
91.88° ESE
Elevation
-5.696°
Doppler factor
1
Orbital elements
Apogee altitude
36,067.788 km
Perigee altitude
35,126.891 km
Semi-major axis
41,975.476 km
Eccentricity
0.01121
Inclination
0.7829°
RAAN
23.2278°
Arg. of periapsis
1.94°
True anomaly
Unknown
Mean anomaly
335.3581°
Eccentric anomaly
Unknown
Mean motion
0.25238 °/min
Orbital period
1,426.44 mins
BSTAR
0
Loading historical data...
64398 neighbors
Loading maneuver chart data...
Loading SW <> Apogee altitude chart data...
Loading historical data...
Loading historical data...
Loading historical data...
Loading historical data...
Loading historical data...
Loading historical data...
Loading historical data...

INTELSAT 33E DEB Visibility

Observer location: undefined°, undefined°

INTELSAT 33E DEB is likely not visible in the next few days
Span
Click to sort rows by Start time (UTC) header in descending order
Start Az.
Max El. time (UTC)
Max El. Az.
Max El.
End time (UTC)
End Az.
|